#timestamp,LO_Frequency,Hit,StdDev 
1642726815.4,286046998.4,N
1642726835.2,286046998.3,N
1642726855.1,286047000.5,N
1642726856.0,286047000.5,N
1642726875.8,286047001.0,N
1642726895.7,286047000.5,N
1642726915.5,286047000.4,N
1642726935.3,286047000.3,N
1642726955.2,286047000.5,N
1642726975.0,286046999.7,N
1642726975.9,286046999.7,N
1642726995.8,286047000.1,N
1642727015.6,286046998.2,N
1642727035.4,286047000.8,N
1642727055.3,286047000.6,N
1642727075.1,286047000.6,N
1642727095.8,286046998.8,N
1642727115.7,286046998.8,N
1642727135.5,286046999.2,N
1642727155.4,286046997.5,N
1642727175.2,286046995.4,Y
1642727195.0,286046996.5,P
1642727195.9,286046996.5,N
1642727215.8,286046998.8,N
1642727235.6,286046999.6,N
1642727255.4,286046997.5,N
1642727275.3,286046998.0,N
1642727295.1,286046999.3,N
1642727315.9,286046997.0,N
1642727335.7,286047000.6,N
1642727355.5,286047001.1,N
1642727375.4,286046999.1,N
1642727395.2,286046997.4,N
1642727415.0,286046997.9,N
1642727415.9,286046997.9,N
1642727435.8,286046996.8,N
1642727455.6,286046995.5,Y
1642727475.5,286046997.0,P
1642727495.3,286046994.9,P
1642727515.1,286046997.6,N
1642727535.9,286046995.0,Y
1642727555.7,286046998.6,P
1642727575.6,286046998.2,N
1642727595.4,286046999.6,N
1642727615.2,286046996.6,Y
1642727635.1,286047000.3,P
1642727636.0,286047000.3,N
1642727655.8,286047011.9,P
1642727675.6,286047000.5,N
1642727695.5,286046998.3,N
1642727715.3,286047000.4,N
1642727735.2,286046999.8,N
1642727755.9,286047000.2,N
1642727775.7,286047000.1,N
1642727795.6,286046998.5,N
1642727815.4,286047000.5,N
1642727835.2,286047001.2,N
1642727855.1,286047001.1,N
1642727856.0,286047001.1,N
1642727875.8,286046998.1,N
1642727895.7,286047000.9,N
1642727915.5,286046999.3,N
1642727935.3,286047001.0,N
1642727955.2,286046999.9,N
1642727975.0,286046998.3,N
1642727975.9,286046998.3,N
1642727995.8,286047001.1,N
1642728015.6,286047001.1,N
1642728035.4,286046999.2,N
1642728055.3,286046997.1,N
1642728075.1,286046997.9,N
1642728095.8,286046995.7,N
1642728115.7,286046997.7,N
1642728135.5,286046995.3,N
1642728155.4,286046994.9,N
1642728175.2,286046995.0,N
1642728195.0,286046997.2,N
1642728195.9,286046997.2,N
1642728215.8,286046997.7,N
1642728235.6,286046994.9,N
1642728255.5,286046997.6,N
1642728305.3,286046995.4,E
1642728315.2,286046997.0,N
1642728335.1,286047000.2,P
1642728336.0,286047000.2,N
1642728355.8,286046998.1,N
1642728375.7,286047000.7,N
1642728395.5,286047002.8,N
1642728415.3,286047000.1,N
1642728435.2,286047000.8,N
1642728455.0,286047001.1,N
1642728455.9,286047001.1,N
1642728475.8,286046996.6,N
1642728495.6,286046997.0,N
1642728515.4,286046999.1,N
1642728535.3,286046997.1,N
1642728555.1,286046999.6,N
1642728575.8,286046997.2,N
1642728595.7,286046999.6,N
1642728615.5,286046996.7,N
1642728635.4,286046996.7,N
1642728655.2,286046997.0,N
1642728675.0,286046996.5,N
1642728675.9,286046996.5,N
1642728695.8,286046999.1,N
1642728715.6,286046999.4,N
1642728735.5,286046998.7,N
1642728755.3,286046998.5,N
1642728775.1,286047000.4,N
1642728795.9,286047000.8,N
1642728815.7,286046998.2,N
1642728835.5,286047000.8,N
1642728855.4,286046998.3,N
1642728875.2,286047000.5,N
1642728895.1,286046999.8,N
1642728896.0,286046999.8,N
1642728915.8,286047000.3,N
1642728935.6,286046998.5,N
1642728955.5,286047001.1,N
1642728975.3,286046998.4,N
1642728995.1,286046998.1,N
1642729015.9,286047000.5,N
1642729035.7,286047000.7,N
1642729055.6,286047000.5,N
1642729075.4,286047000.9,N
1642729095.2,286047000.8,N
1642729115.1,286047001.0,N
1642729116.0,286047001.0,N
1642729135.8,286046998.6,N
1642729155.6,286046999.0,N
1642729175.5,286046997.7,N
1642729195.3,286046998.7,N
1642729215.2,286046999.0,N
1642729235.9,286047001.2,N
1642729255.7,286046998.7,N
1642729275.6,286046998.2,N
1642729295.4,286046996.9,N
1642729315.3,286046997.9,N
1642729335.1,286046995.3,Y
1642729336.0,286046995.3,P
1642729355.8,286046994.9,N
1642729375.7,286046997.2,N
1642729395.5,286046995.0,N
1642729415.3,286046995.1,N
1642729435.2,286046996.1,N
1642729455.0,286046995.3,Y
1642729455.9,286046995.3,P
1642729475.8,286047002.6,P
1642729495.6,286047002.3,N
1642729515.4,286046999.7,N
1642729535.3,286047002.4,N
1642729555.1,286047001.6,N
1642729575.8,286047002.5,N
1642729595.7,286047001.5,N
1642729615.5,286047001.4,N
1642729635.4,286046999.8,N
1642729655.2,286047002.2,N
1642729675.0,286047002.2,N
1642729675.9,286047002.2,N
1642729695.8,286046999.7,N
1642729715.6,286047001.9,N
1642729735.5,286047003.9,N
1642729755.3,286047003.7,N
1642729775.1,286047003.6,N
1642729795.9,286047004.2,N
1642729815.7,286047003.4,N
1642729835.5,286047003.5,N
1642729855.4,286047005.4,N
1642729875.2,286047003.0,N
1642729895.1,286047005.7,N
1642729896.0,286047005.7,N
1642729915.8,286047005.9,N
1642729935.6,286047005.6,N
1642729955.5,286047003.3,N
1642729975.3,286047003.7,N
1642729995.1,286047004.2,N
1642730015.9,286047003.1,N
1642730035.7,286047003.8,N
1642730055.6,286047003.1,N
1642730075.4,286047002.9,N
1642730095.2,286047003.4,N
1642730115.1,286047003.0,N
1642730116.0,286047003.0,N
1642730135.8,286047003.6,N
1642730155.7,286047003.1,N
1642730175.5,286047003.7,N
1642730195.3,286047003.2,N
1642730215.2,286047006.0,Y
1642730235.0,286047001.0,P
1642730235.9,286047001.0,N
1642730255.8,286047002.4,N
1642730275.6,286047001.3,N
1642730295.4,286047003.2,Y
1642730315.3,286047000.2,P
1642730335.1,286047002.3,N
1642730355.8,286047000.7,N
1642730375.7,286047000.9,N
1642730395.5,286047000.0,N
